Weather History for KLGU - January, 2013

Change the Weather History Date:

Tuesday, January 29, 2013

  Actual Average (WUND) Record (WUND)
Temperature  
Mean Temperature 23 °F -  
Max Temperature 28 °F - - (-1)
Min Temperature 18 °F - - (-1)
Degree Days  
Heating Degree Days 42    
Moisture  
Dew Point 21 °F    
Average Humidity 87    
Maximum Humidity 96    
Minimum Humidity 75    
Precipitation  
Precipitation 0.06 in - - ()
Sea Level Pressure  
Sea Level Pressure 29.99 in    
Wind  
Wind Speed 6 mph (ESE)    
Max Wind Speed 16 mph    
Max Gust Speed -    
Visibility 4 miles    
Events Fog , Snow    
Averages and records for this station are not official NWS values.
T = Trace of Precipitation, MM = Missing Value Source: NWS Daily Summary

Daily Weather History Graph

Daily Weather History Graph

Search for Another Location

Airport or City:

Trip Planner

Search our weather history database for the weather conditions in past years. The results will help you decide how hot, cold, wet, or windy it might be!

Date:

Astronomy

Jan. 29, 2013 Rise Set
Actual Time 7:42 AM MST 5:39 PM MST
Civil Twilight 7:12 AM MST 6:09 PM MST
Nautical Twilight 6:39 AM MST 6:42 PM MST
Astronomical Twilight 6:06 AM MST 7:15 PM MST
Moon 8:43 PM MST (1/29) 8:38 AM MST (1/29)
Length of Visible Light 10h 56m
Length of Day
9h 57m
Waning Gibbous, 93% of the Moon is Illuminated
Jan 29
Waning Gibbous
Feb 3
Last Quarter
Feb 10
New
Feb 17
First Quarter
Feb 25
Full

Hourly Weather History & Observations

Time (MST) Temp. Windchill Dew Point Humidity Pressure Visibility Wind Dir Wind Speed Gust Speed Precip Events Conditions
12:51 AM 24.1 °F 11.0 °F 18.0 °F 77% 29.97 in 10.0 mi South 16.1 mph - N/A   Overcast
1:51 AM 24.1 °F 13.1 °F 18.0 °F 77% 29.95 in 10.0 mi SSE 11.5 mph - N/A   Overcast
2:51 AM 24.1 °F 13.7 °F 18.0 °F 77% 29.93 in 10.0 mi South 10.4 mph - N/A   Overcast
3:51 AM 25.0 °F 14.2 °F 18.0 °F 75% 29.91 in 9.0 mi South 11.5 mph - N/A   Overcast
4:51 AM 25.0 °F 16.3 °F 19.0 °F 78% 29.91 in 9.0 mi South 8.1 mph - 0.00 in Snow Light Snow
5:32 AM 24.8 °F 14.0 °F 19.4 °F 80% 29.82 in 6.0 mi SSE 11.5 mph - 0.00 in Snow Light Snow
6:13 AM 24.8 °F 14.6 °F 19.4 °F 80% 29.83 in 2.5 mi South 10.4 mph - 0.00 in Snow Light Snow
6:26 AM 24.8 °F 14.6 °F 19.4 °F 80% 29.83 in 3.0 mi South 10.4 mph - 0.00 in Snow Light Snow
6:51 AM 24.1 °F 16.0 °F 19.0 °F 81% 29.91 in 9.0 mi SSE 6.9 mph - 0.00 in   Overcast
7:42 AM 24.8 °F 16.1 °F 19.4 °F 80% 29.83 in 5.0 mi South 8.1 mph - 0.00 in Snow Light Snow
7:51 AM 25.0 °F 17.1 °F 19.0 °F 78% 29.92 in 3.0 mi South 6.9 mph - 0.00 in Snow Light Snow
7:54 AM 24.8 °F 16.9 °F 19.4 °F 80% 29.84 in 1.8 mi South 6.9 mph - 0.00 in Snow Light Snow
8:03 AM 24.8 °F 16.9 °F 21.2 °F 86% 29.84 in 0.5 mi South 6.9 mph - 0.00 in Fog , Snow Snow
8:18 AM 24.8 °F 16.9 °F 21.2 °F 86% 29.84 in 0.8 mi SSE 6.9 mph - 0.00 in Snow Light Snow
8:25 AM 24.8 °F 20.5 °F 21.2 °F 86% 29.84 in 1.0 mi SSE 3.5 mph - 0.00 in Snow Light Snow
8:31 AM 24.8 °F 20.5 °F 21.2 °F 86% 29.84 in 1.0 mi SE 3.5 mph - 0.01 in Snow Light Snow
8:39 AM 24.8 °F - 21.2 °F 86% 29.85 in 0.8 mi Calm Calm - 0.01 in Snow Light Snow
8:51 AM 24.1 °F - 21.9 °F 91% 29.94 in 1.0 mi Calm Calm - 0.01 in Snow Light Snow
8:56 AM 24.8 °F - 21.2 °F 86% 29.85 in 0.8 mi Calm Calm - 0.00 in Snow Light Snow
9:06 AM 24.8 °F - 21.2 °F 86% 29.86 in 0.5 mi Calm Calm - 0.01 in Fog , Snow Snow
9:27 AM 24.8 °F - 21.2 °F 86% 29.86 in 0.5 mi Calm Calm - 0.03 in Fog , Snow Snow
9:37 AM 24.8 °F - 21.2 °F 86% 29.86 in 0.5 mi Calm Calm - 0.03 in Fog , Snow Light Snow
9:51 AM 25.0 °F - 21.9 °F 88% 29.96 in 0.8 mi Calm Calm - 0.03 in Snow Light Snow
9:55 AM 24.8 °F - 21.2 °F 86% 29.87 in 1.0 mi Calm Calm - 0.01 in Snow Light Snow
10:28 AM 26.6 °F - 23.0 °F 86% 29.89 in 2.0 mi Calm Calm - 0.01 in Snow Light Snow
10:40 AM 24.8 °F - 23.0 °F 93% 29.89 in 1.8 mi Calm Calm - 0.01 in Snow Light Snow
10:49 AM 26.6 °F - 23.0 °F 86% 29.89 in 2.0 mi Calm Calm - 0.01 in Snow Light Snow
10:51 AM 26.1 °F - 23.0 °F 88% 29.98 in 2.5 mi Calm Calm - 0.01 in Snow Light Snow
11:38 AM 24.8 °F 16.9 °F 21.2 °F 86% 29.92 in 1.5 mi NNW 6.9 mph - 0.00 in Snow Light Snow
11:51 AM 26.1 °F 18.4 °F 23.0 °F 88% 30.00 in 1.8 mi North 6.9 mph - 0.00 in Snow Light Snow
12:12 PM 26.6 °F 19.1 °F 23.0 °F 86% 29.92 in 2.5 mi North 6.9 mph - 0.00 in Snow Light Snow
12:51 PM 27.0 °F 18.7 °F 23.0 °F 85% 30.01 in 3.0 mi North 8.1 mph - 0.00 in Snow Light Snow
1:13 PM 26.6 °F 19.1 °F 23.0 °F 86% 29.93 in 2.0 mi North 6.9 mph - 0.00 in Snow Light Snow
1:18 PM 26.6 °F 19.1 °F 23.0 °F 86% 29.94 in 1.5 mi North 6.9 mph - 0.00 in Snow Light Snow
1:39 PM 26.6 °F 20.0 °F 23.0 °F 86% 29.94 in 1.5 mi North 5.8 mph - 0.00 in Snow Light Snow
1:51 PM 27.0 °F 21.6 °F 23.0 °F 85% 30.02 in 1.5 mi North 4.6 mph - 0.00 in Snow Light Snow
2:05 PM 26.6 °F 22.6 °F 23.0 °F 86% 29.95 in 2.0 mi North 3.5 mph - 0.00 in Snow Light Snow
2:20 PM 26.6 °F 22.6 °F 23.0 °F 86% 29.95 in 1.8 mi North 3.5 mph - 0.00 in Snow Light Snow
2:25 PM 26.6 °F 22.6 °F 23.0 °F 86% 29.96 in 2.0 mi NNW 3.5 mph - 0.00 in Snow Light Snow
2:34 PM 26.6 °F - 23.0 °F 86% 29.96 in 1.5 mi Calm Calm - 0.00 in Snow Light Snow
2:45 PM 26.6 °F 21.2 °F 23.0 °F 86% 29.96 in 3.0 mi NW 4.6 mph - 0.00 in Snow Light Snow
2:51 PM 27.0 °F 23.0 °F 23.0 °F 85% 30.05 in 6.0 mi NNW 3.5 mph - 0.00 in   Overcast
3:51 PM 28.0 °F - 23.0 °F 81% 30.08 in 6.0 mi Calm Calm - 0.00 in Snow Light Snow
4:02 PM 26.6 °F - 21.2 °F 80% 30.01 in 9.0 mi Calm Calm - N/A   Mostly Cloudy
4:51 PM 24.1 °F - 21.9 °F 91% 30.12 in 8.0 mi Calm Calm - N/A   Overcast
5:51 PM 21.9 °F 15.7 °F 21.0 °F 96% 30.16 in 9.0 mi WSW 4.6 mph - N/A   Overcast
6:51 PM 21.0 °F - 19.0 °F 92% 30.19 in 7.0 mi Calm Calm - N/A   Overcast
7:20 PM 21.2 °F - 19.4 °F 93% 30.11 in 2.0 mi Calm Calm - 0.00 in Snow Light Snow
7:25 PM 21.2 °F - 19.4 °F 93% 30.11 in 1.0 mi Calm Calm - 0.00 in Snow Light Snow
7:30 PM 21.2 °F 16.4 °F 19.4 °F 93% 30.11 in 0.8 mi ESE 3.5 mph - 0.01 in Snow Light Snow
7:35 PM 23.0 °F - 19.4 °F 86% 30.12 in 1.0 mi Calm Calm - 0.01 in Snow Light Snow
7:40 PM 23.0 °F - 21.2 °F 93% 30.12 in 1.5 mi Calm Calm - 0.01 in Snow Light Snow
7:51 PM 23.0 °F 18.4 °F 21.0 °F 92% 30.22 in 3.0 mi East 3.5 mph - 0.01 in Snow Light Snow
8:02 PM 23.0 °F 18.4 °F 21.2 °F 93% 30.13 in 2.0 mi East 3.5 mph - 0.00 in Snow Light Snow
8:07 PM 23.0 °F 18.4 °F 21.2 °F 93% 30.13 in 2.0 mi East 3.5 mph - 0.00 in Snow Light Snow
8:20 PM 23.0 °F 18.4 °F 21.2 °F 93% 30.13 in 3.0 mi East 3.5 mph - 0.00 in Snow Light Snow
8:51 PM 21.9 °F 14.5 °F 19.9 °F 92% 30.23 in 5.0 mi East 5.8 mph - 0.00 in   Overcast
9:51 PM 18.0 °F 12.7 °F 16.0 °F 92% 30.25 in 7.0 mi West 3.5 mph - N/A   Mostly Cloudy
10:01 PM 19.4 °F 11.5 °F 15.8 °F 86% 30.15 in 7.0 mi SE 5.8 mph - N/A   Overcast
10:10 PM 19.4 °F 14.3 °F 17.6 °F 93% 30.15 in 7.0 mi ESE 3.5 mph - N/A   Overcast
10:45 PM 21.2 °F - 19.4 °F 93% 30.14 in 4.0 mi Calm Calm - 0.00 in   Overcast
10:51 PM 21.9 °F 17.2 °F 19.9 °F 92% 30.24 in 5.0 mi East 3.5 mph - 0.00 in   Overcast
11:35 PM 23.0 °F - 21.2 °F 93% 30.16 in 3.0 mi Calm Calm - 0.00 in Snow Light Snow
11:51 PM 23.0 °F 17.0 °F 21.0 °F 92% 30.25 in 4.0 mi East 4.6 mph - 0.00 in   Overcast